Year,Month,Day,Hour,Minute,Value (Times are PST for barometer in hPa)
2021,10,23,00,00,1001.64
2021,10,23,00,01,1001.63
2021,10,23,00,02,1001.63
2021,10,23,00,03,1001.63
2021,10,23,00,04,1001.63
2021,10,23,00,05,1001.63
2021,10,23,00,06,1001.63
2021,10,23,00,07,1001.63
2021,10,23,00,08,1001.63
2021,10,23,00,09,1001.63
2021,10,23,00,10,1001.63
2021,10,23,00,11,1001.63
2021,10,23,00,12,1001.63
2021,10,23,00,13,1001.63
2021,10,23,00,14,1001.63
2021,10,23,00,15,1001.49
2021,10,23,00,16,1001.49
2021,10,23,00,17,1001.49
2021,10,23,00,18,1001.49
2021,10,23,00,19,1001.49
2021,10,23,00,20,1001.49
2021,10,23,00,21,1001.49
2021,10,23,00,22,1001.49
2021,10,23,00,23,1001.49
2021,10,23,00,24,1001.49
2021,10,23,00,25,1001.49
2021,10,23,00,26,1001.49
2021,10,23,00,27,1001.49
2021,10,23,00,28,1001.49
2021,10,23,00,29,1001.48
2021,10,23,00,30,1001.25
2021,10,23,00,31,1001.25
2021,10,23,00,32,1001.25
2021,10,23,00,33,1001.25
2021,10,23,00,34,1001.25
2021,10,23,00,35,1001.25
2021,10,23,00,36,1001.25
2021,10,23,00,37,1001.25
2021,10,23,00,38,1001.25
2021,10,23,00,39,1001.25
2021,10,23,00,40,1001.25
2021,10,23,00,41,1001.25
2021,10,23,00,42,1001.25
2021,10,23,00,43,1001.25
2021,10,23,00,44,1001.25
2021,10,23,00,45,1001.08
2021,10,23,00,46,1001.08
2021,10,23,00,47,1001.08
2021,10,23,00,48,1001.08
2021,10,23,00,49,1001.08
2021,10,23,00,50,1001.08
2021,10,23,00,51,1001.08
2021,10,23,00,52,1001.08
2021,10,23,00,53,1001.08
2021,10,23,00,54,1001.08
2021,10,23,00,55,1001.08
2021,10,23,00,56,1001.08
2021,10,23,00,57,1001.08
2021,10,23,00,58,1001.08
2021,10,23,00,59,1001.08
2021,10,23,01,00,1001.05
2021,10,23,01,01,1001.05
2021,10,23,01,02,1001.05
2021,10,23,01,03,1001.05
2021,10,23,01,04,1001.05
2021,10,23,01,05,1001.05
2021,10,23,01,06,1001.05
2021,10,23,01,07,1001.05
2021,10,23,01,08,1001.05
2021,10,23,01,09,1001.05
2021,10,23,01,10,1001.05
2021,10,23,01,11,1001.05
2021,10,23,01,12,1001.05
2021,10,23,01,13,1001.05
2021,10,23,01,14,1001.05
2021,10,23,01,15,1001.05
2021,10,23,01,16,1001.05
2021,10,23,01,17,1001.05
2021,10,23,01,18,1001.05
2021,10,23,01,19,1001.05
2021,10,23,01,20,1001.05
2021,10,23,01,21,1001.05
2021,10,23,01,22,1001.05
2021,10,23,01,23,1001.05
2021,10,23,01,24,1001.05
2021,10,23,01,25,1001.05
2021,10,23,01,26,1001.05
2021,10,23,01,27,1001.05
2021,10,23,01,28,1001.05
2021,10,23,01,29,1001.05
2021,10,23,01,30,1000.71
2021,10,23,01,31,1000.71
2021,10,23,01,32,1000.71
2021,10,23,01,33,1000.71
2021,10,23,01,34,1000.71
2021,10,23,01,35,1000.71
2021,10,23,01,36,1000.71
2021,10,23,01,37,1000.71
2021,10,23,01,38,1000.71
2021,10,23,01,39,1000.71
2021,10,23,01,40,1000.71
2021,10,23,01,41,1000.71
2021,10,23,01,42,1000.71
2021,10,23,01,43,1000.71
2021,10,23,01,44,1000.71
2021,10,23,01,45,1000.54
2021,10,23,01,46,1000.54
2021,10,23,01,47,1000.54
2021,10,23,01,48,1000.54
2021,10,23,01,49,1000.54
2021,10,23,01,50,1000.54
2021,10,23,01,51,1000.54
2021,10,23,01,52,1000.54
2021,10,23,01,53,1000.54
2021,10,23,01,54,1000.54
2021,10,23,01,55,1000.54
2021,10,23,01,56,1000.54
2021,10,23,01,57,1000.54
2021,10,23,01,58,1000.54
2021,10,23,01,59,1000.54
2021,10,23,02,00,1000.58
2021,10,23,02,01,1000.58
2021,10,23,02,02,1000.58
2021,10,23,02,03,1000.58
2021,10,23,02,04,1000.58
2021,10,23,02,05,1000.58
2021,10,23,02,06,1000.58
2021,10,23,02,07,1000.58
2021,10,23,02,08,1000.58
2021,10,23,02,09,1000.58
2021,10,23,02,10,1000.58
2021,10,23,02,11,1000.58
2021,10,23,02,12,1000.58
2021,10,23,02,13,1000.58
2021,10,23,02,14,1000.58
2021,10,23,02,15,1000.51
2021,10,23,02,16,1000.51
2021,10,23,02,17,1000.51
2021,10,23,02,18,1000.51
2021,10,23,02,19,1000.51
2021,10,23,02,20,1000.51
2021,10,23,02,21,1000.51
2021,10,23,02,22,1000.51
2021,10,23,02,23,1000.51
2021,10,23,02,24,1000.51
2021,10,23,02,25,1000.51
2021,10,23,02,26,1000.51
2021,10,23,02,27,1000.51
2021,10,23,02,28,1000.51
2021,10,23,02,29,1000.51
2021,10,23,02,30,1000.48
2021,10,23,02,31,1000.48
2021,10,23,02,32,1000.48
2021,10,23,02,33,1000.48
2021,10,23,02,34,1000.48
2021,10,23,02,35,1000.48
2021,10,23,02,36,1000.48
2021,10,23,02,37,1000.48
2021,10,23,02,38,1000.48
2021,10,23,02,39,1000.48
2021,10,23,02,40,1000.48
2021,10,23,02,41,1000.48
2021,10,23,02,42,1000.48
2021,10,23,02,43,1000.48
2021,10,23,02,44,1000.48
2021,10,23,02,45,1000.14
2021,10,23,02,46,1000.14
2021,10,23,02,47,1000.14
2021,10,23,02,48,1000.14
2021,10,23,02,49,1000.14
2021,10,23,02,50,1000.14
2021,10,23,02,51,1000.14
2021,10,23,02,52,1000.14
2021,10,23,02,53,1000.14
2021,10,23,02,54,1000.14
2021,10,23,02,55,1000.14
2021,10,23,02,56,1000.14
2021,10,23,02,57,1000.14
2021,10,23,02,58,1000.14
2021,10,23,02,59,1000.14
2021,10,23,03,00,1000.00
2021,10,23,03,01,1000.00
2021,10,23,03,02,1000.00
2021,10,23,03,03,1000.00
2021,10,23,03,04,1000.00
2021,10,23,03,05,1000.00
2021,10,23,03,06,1000.00
2021,10,23,03,07,1000.00
2021,10,23,03,08,1000.00
2021,10,23,03,09,1000.00
2021,10,23,03,10,1000.00
2021,10,23,03,11,1000.00
2021,10,23,03,12,1000.00
2021,10,23,03,13,1000.00
2021,10,23,03,14,1000.00
2021,10,23,03,15,999.97
2021,10,23,03,16,999.97
2021,10,23,03,17,999.97
2021,10,23,03,18,999.97
2021,10,23,03,19,999.97
2021,10,23,03,20,999.97
2021,10,23,03,21,999.97
2021,10,23,03,22,999.97
2021,10,23,03,23,999.97
2021,10,23,03,24,999.97
2021,10,23,03,25,999.97
2021,10,23,03,26,999.97
2021,10,23,03,27,999.97
2021,10,23,03,28,999.97
2021,10,23,03,29,999.97
2021,10,23,03,30,999.80
2021,10,23,03,31,999.80
2021,10,23,03,32,999.80
2021,10,23,03,33,999.80
2021,10,23,03,34,999.80
2021,10,23,03,35,999.80
2021,10,23,03,36,999.80
2021,10,23,03,37,999.80
2021,10,23,03,38,999.80
2021,10,23,03,39,999.80
2021,10,23,03,40,999.80
2021,10,23,03,41,999.80
2021,10,23,03,42,999.80
2021,10,23,03,43,999.80
2021,10,23,03,44,999.80
2021,10,23,03,45,999.53
2021,10,23,03,46,999.53
2021,10,23,03,47,999.53
2021,10,23,03,48,999.53
2021,10,23,03,49,999.53
2021,10,23,03,50,999.53
2021,10,23,03,51,999.53
2021,10,23,03,52,999.53
2021,10,23,03,53,999.53
2021,10,23,03,54,999.53
2021,10,23,03,55,999.53
2021,10,23,03,56,999.53
2021,10,23,03,57,999.53
2021,10,23,03,58,999.53
2021,10,23,03,59,999.53
2021,10,23,04,00,999.46
2021,10,23,04,01,999.46
2021,10,23,04,02,999.46
2021,10,23,04,03,999.46
2021,10,23,04,04,999.46
2021,10,23,04,05,999.46
2021,10,23,04,06,999.46
2021,10,23,04,07,999.46
2021,10,23,04,08,999.46
2021,10,23,04,09,999.46
2021,10,23,04,10,999.46
2021,10,23,04,11,999.46
2021,10,23,04,12,999.46
2021,10,23,04,13,999.46
2021,10,23,04,14,999.46
2021,10,23,04,15,999.12
2021,10,23,04,16,999.12
2021,10,23,04,17,999.12
2021,10,23,04,18,999.12
2021,10,23,04,19,999.12
2021,10,23,04,20,999.12
2021,10,23,04,21,999.12
2021,10,23,04,22,999.12
2021,10,23,04,23,999.12
2021,10,23,04,24,999.12
2021,10,23,04,25,999.12
2021,10,23,04,26,999.12
2021,10,23,04,27,999.12
2021,10,23,04,28,999.12
2021,10,23,04,29,999.12
2021,10,23,04,30,999.12
2021,10,23,04,31,999.12
2021,10,23,04,32,999.12
2021,10,23,04,33,999.12
2021,10,23,04,34,999.12
2021,10,23,04,35,999.12
2021,10,23,04,36,999.12
2021,10,23,04,37,999.12
2021,10,23,04,38,999.12
2021,10,23,04,39,999.12
2021,10,23,04,40,999.12
2021,10,23,04,41,999.12
2021,10,23,04,42,999.12
2021,10,23,04,43,999.12
2021,10,23,04,44,999.12
2021,10,23,04,45,998.95
2021,10,23,04,46,998.95
2021,10,23,04,47,998.95
2021,10,23,04,48,998.95
2021,10,23,04,49,998.95
2021,10,23,04,50,998.95
2021,10,23,04,51,998.95
2021,10,23,04,52,998.95
2021,10,23,04,53,998.95
2021,10,23,04,54,998.95
2021,10,23,04,55,998.95
2021,10,23,04,56,998.95
2021,10,23,04,57,998.95
2021,10,23,04,58,998.95
2021,10,23,04,59,998.95
2021,10,23,05,00,998.95
2021,10,23,05,01,998.95
2021,10,23,05,02,998.95
2021,10,23,05,03,998.95
2021,10,23,05,04,998.95
2021,10,23,05,05,998.95
2021,10,23,05,06,998.95
2021,10,23,05,07,998.95
2021,10,23,05,08,998.95
2021,10,23,05,09,998.95
2021,10,23,05,10,998.95
2021,10,23,05,11,998.95
2021,10,23,05,12,998.95
2021,10,23,05,13,998.95
2021,10,23,05,14,998.95
2021,10,23,05,15,998.85
2021,10,23,05,16,998.85
2021,10,23,05,17,998.85
2021,10,23,05,18,998.85
2021,10,23,05,19,998.85
2021,10,23,05,20,998.85
2021,10,23,05,21,998.85
2021,10,23,05,22,998.85
2021,10,23,05,23,998.85
2021,10,23,05,24,998.85
2021,10,23,05,25,998.85
2021,10,23,05,26,998.85
2021,10,23,05,27,998.85
2021,10,23,05,28,998.85
2021,10,23,05,29,998.85
2021,10,23,05,30,998.92
2021,10,23,05,31,998.92
2021,10,23,05,32,998.92
2021,10,23,05,33,998.92
2021,10,23,05,34,998.92
2021,10,23,05,35,998.92
2021,10,23,05,36,998.92
2021,10,23,05,37,998.92
2021,10,23,05,38,998.92
2021,10,23,05,39,998.92
2021,10,23,05,40,998.92
2021,10,23,05,41,998.92
2021,10,23,05,42,998.92
2021,10,23,05,43,998.92
2021,10,23,05,44,998.91
2021,10,23,05,45,998.58
2021,10,23,05,46,998.58
2021,10,23,05,47,998.58
2021,10,23,05,48,998.58
2021,10,23,05,49,998.58
2021,10,23,05,50,998.58
2021,10,23,05,51,998.58
2021,10,23,05,52,998.58
2021,10,23,05,53,998.58
2021,10,23,05,54,998.58
2021,10,23,05,55,998.58
2021,10,23,05,56,998.58
2021,10,23,05,57,998.58
2021,10,23,05,58,998.58
2021,10,23,05,59,998.58
2021,10,23,06,00,998.44
2021,10,23,06,01,998.44
2021,10,23,06,02,998.44
2021,10,23,06,03,998.44
2021,10,23,06,04,998.44
2021,10,23,06,05,998.44
2021,10,23,06,06,998.44
2021,10,23,06,07,998.44
2021,10,23,06,08,998.44
2021,10,23,06,09,998.44
2021,10,23,06,10,998.44
2021,10,23,06,11,998.44
2021,10,23,06,12,998.44
2021,10,23,06,13,998.44
2021,10,23,06,14,998.44
2021,10,23,06,15,998.38
2021,10,23,06,16,998.38
2021,10,23,06,17,998.38
2021,10,23,06,18,998.38
2021,10,23,06,19,998.38
2021,10,23,06,20,998.38
2021,10,23,06,21,998.38
2021,10,23,06,22,998.38
2021,10,23,06,23,998.38
2021,10,23,06,24,998.38
2021,10,23,06,25,998.38
2021,10,23,06,26,998.38
2021,10,23,06,27,998.38
2021,10,23,06,28,998.38
2021,10,23,06,29,998.38
2021,10,23,06,30,998.38
2021,10,23,06,31,998.38
2021,10,23,06,32,998.38
2021,10,23,06,33,998.38
2021,10,23,06,34,998.38
2021,10,23,06,35,998.38
2021,10,23,06,36,998.38
2021,10,23,06,37,998.38
2021,10,23,06,38,998.38
2021,10,23,06,39,998.38
2021,10,23,06,40,998.38
2021,10,23,06,41,998.38
2021,10,23,06,42,998.38
2021,10,23,06,43,998.38
2021,10,23,06,44,998.37
2021,10,23,06,45,998.10
2021,10,23,06,46,998.10
2021,10,23,06,47,998.10
2021,10,23,06,48,998.10
2021,10,23,06,49,998.10
2021,10,23,06,50,998.10
2021,10,23,06,51,998.10
2021,10,23,06,52,998.10
2021,10,23,06,53,998.10
2021,10,23,06,54,998.10
2021,10,23,06,55,998.10
2021,10,23,06,56,998.10
2021,10,23,06,57,998.10
2021,10,23,06,58,998.10
2021,10,23,06,59,998.10
2021,10,23,07,00,998.04
2021,10,23,07,01,998.04
2021,10,23,07,02,998.04
2021,10,23,07,03,998.04
2021,10,23,07,04,998.04
2021,10,23,07,05,998.04
2021,10,23,07,06,998.04
2021,10,23,07,07,998.04
2021,10,23,07,08,998.04
2021,10,23,07,09,998.04
2021,10,23,07,10,998.04
2021,10,23,07,11,998.04
2021,10,23,07,12,998.04
2021,10,23,07,13,998.04
2021,10,23,07,14,998.04
2021,10,23,07,15,997.94
2021,10,23,07,16,997.94
2021,10,23,07,17,997.94
2021,10,23,07,18,997.94
2021,10,23,07,19,997.94
2021,10,23,07,20,997.94
2021,10,23,07,21,997.94
2021,10,23,07,22,997.94
2021,10,23,07,23,997.94
2021,10,23,07,24,997.94
2021,10,23,07,25,997.94
2021,10,23,07,26,997.94
2021,10,23,07,27,997.94
2021,10,23,07,28,997.94
2021,10,23,07,29,997.94
2021,10,23,07,30,997.90
2021,10,23,07,31,997.90
2021,10,23,07,32,997.90
2021,10,23,07,33,997.90
2021,10,23,07,34,997.90
2021,10,23,07,35,997.90
2021,10,23,07,36,997.90
2021,10,23,07,37,997.90
2021,10,23,07,38,997.90
2021,10,23,07,39,997.90
2021,10,23,07,40,997.90
2021,10,23,07,41,997.90
2021,10,23,07,42,997.90
2021,10,23,07,43,997.90
2021,10,23,07,44,997.90
2021,10,23,07,45,997.90
2021,10,23,07,46,997.90
2021,10,23,07,47,997.90
2021,10,23,07,48,997.90
2021,10,23,07,49,997.90
2021,10,23,07,50,997.90
2021,10,23,07,51,997.90
2021,10,23,07,52,997.90
2021,10,23,07,53,997.90
2021,10,23,07,54,997.90
2021,10,23,07,55,997.90
2021,10,23,07,56,997.90
2021,10,23,07,57,997.90
2021,10,23,07,58,997.90
2021,10,23,07,59,997.90
2021,10,23,08,00,997.94
2021,10,23,08,01,997.94
2021,10,23,08,02,997.94
2021,10,23,08,03,997.94
2021,10,23,08,04,997.94
2021,10,23,08,05,997.94
2021,10,23,08,06,997.94
2021,10,23,08,07,997.94
2021,10,23,08,08,997.94
2021,10,23,08,09,997.94
2021,10,23,08,10,997.94
2021,10,23,08,11,997.94
2021,10,23,08,12,997.94
2021,10,23,08,13,997.94
2021,10,23,08,14,997.94
2021,10,23,08,15,997.87
2021,10,23,08,16,997.87
2021,10,23,08,17,997.87
2021,10,23,08,18,997.87
2021,10,23,08,19,997.87
2021,10,23,08,20,997.87
2021,10,23,08,21,997.87
2021,10,23,08,22,997.87
2021,10,23,08,23,997.87
2021,10,23,08,24,997.87
2021,10,23,08,25,997.87
2021,10,23,08,26,997.87
2021,10,23,08,27,997.87
2021,10,23,08,28,997.87
2021,10,23,08,29,997.87
2021,10,23,08,30,997.53
2021,10,23,08,31,997.53
2021,10,23,08,32,997.53
2021,10,23,08,33,997.53
2021,10,23,08,34,997.53
2021,10,23,08,35,997.53
2021,10,23,08,36,997.53
2021,10,23,08,37,997.53
2021,10,23,08,38,997.53
2021,10,23,08,39,997.53
2021,10,23,08,40,997.53
2021,10,23,08,41,997.53
2021,10,23,08,42,997.53
2021,10,23,08,43,997.53
2021,10,23,08,44,997.53
2021,10,23,08,45,997.50
2021,10,23,08,46,997.50
2021,10,23,08,47,997.50
2021,10,23,08,48,997.50
2021,10,23,08,49,997.50
2021,10,23,08,50,997.50
2021,10,23,08,51,997.50
2021,10,23,08,52,997.50
2021,10,23,08,53,997.50
2021,10,23,08,54,997.50
2021,10,23,08,55,997.50
2021,10,23,08,56,997.50
2021,10,23,08,57,997.50
2021,10,23,08,58,997.50
2021,10,23,08,59,997.50
2021,10,23,09,00,997.77
2021,10,23,09,01,997.77
2021,10,23,09,02,997.77
2021,10,23,09,03,997.77
2021,10,23,09,04,997.77
2021,10,23,09,05,997.77
2021,10,23,09,06,997.77
2021,10,23,09,07,997.77
2021,10,23,09,08,997.77
2021,10,23,09,09,997.77
2021,10,23,09,10,997.77
2021,10,23,09,11,997.77
2021,10,23,09,12,997.77
2021,10,23,09,13,997.77
2021,10,23,09,14,997.77
2021,10,23,09,15,997.90
2021,10,23,09,16,997.90
2021,10,23,09,17,997.90
2021,10,23,09,18,997.90
2021,10,23,09,19,997.90
2021,10,23,09,20,997.90
2021,10,23,09,21,997.90
2021,10,23,09,22,997.90
2021,10,23,09,23,997.90
2021,10,23,09,24,997.90
2021,10,23,09,25,997.90
2021,10,23,09,26,997.90
2021,10,23,09,27,997.90
2021,10,23,09,28,997.90
2021,10,23,09,29,997.90
2021,10,23,09,30,997.80
2021,10,23,09,31,997.80
2021,10,23,09,32,997.80
2021,10,23,09,33,997.80
2021,10,23,09,34,997.80
2021,10,23,09,35,997.80
2021,10,23,09,36,997.80
2021,10,23,09,37,997.80
2021,10,23,09,38,997.80
2021,10,23,09,39,997.80
2021,10,23,09,40,997.80
2021,10,23,09,41,997.80
2021,10,23,09,42,997.80
2021,10,23,09,43,997.80
2021,10,23,09,44,997.80
2021,10,23,09,45,997.90
2021,10,23,09,46,997.90
2021,10,23,09,47,997.90
2021,10,23,09,48,997.90
2021,10,23,09,49,997.90
2021,10,23,09,50,997.90
2021,10,23,09,51,997.90
2021,10,23,09,52,997.90
2021,10,23,09,53,997.90
2021,10,23,09,54,997.90
2021,10,23,09,55,997.90
2021,10,23,09,56,997.90
2021,10,23,09,57,997.90
2021,10,23,09,58,997.90
2021,10,23,09,59,997.90
2021,10,23,10,00,997.94
2021,10,23,10,01,997.94
2021,10,23,10,02,997.94
2021,10,23,10,03,997.94
2021,10,23,10,04,997.94
2021,10,23,10,05,997.94
2021,10,23,10,06,997.94
2021,10,23,10,07,997.94
2021,10,23,10,08,997.94
2021,10,23,10,09,997.94
2021,10,23,10,10,997.94
2021,10,23,10,11,997.94
2021,10,23,10,12,997.94
2021,10,23,10,13,997.94
2021,10,23,10,14,997.94
2021,10,23,10,15,997.90
2021,10,23,10,16,997.90
2021,10,23,10,17,997.90
2021,10,23,10,18,997.90
2021,10,23,10,19,997.90
2021,10,23,10,20,997.90
2021,10,23,10,21,997.90
2021,10,23,10,22,997.90
2021,10,23,10,23,997.90
2021,10,23,10,24,997.90
2021,10,23,10,25,997.90
2021,10,23,10,26,997.90
2021,10,23,10,27,997.90
2021,10,23,10,28,997.90
2021,10,23,10,29,997.90
2021,10,23,10,30,997.90
2021,10,23,10,31,997.90
2021,10,23,10,32,997.90
2021,10,23,10,33,997.90
2021,10,23,10,34,997.90
2021,10,23,10,35,997.90
2021,10,23,10,36,997.90
2021,10,23,10,37,997.90
2021,10,23,10,38,997.90
2021,10,23,10,39,997.90
2021,10,23,10,40,997.90
2021,10,23,10,41,997.90
2021,10,23,10,42,997.90
2021,10,23,10,43,997.90
2021,10,23,10,44,997.90
2021,10,23,10,45,997.87
2021,10,23,10,46,997.87
2021,10,23,10,47,997.87
2021,10,23,10,48,997.87
2021,10,23,10,49,997.87
2021,10,23,10,50,997.87
2021,10,23,10,51,997.87
2021,10,23,10,52,997.87
2021,10,23,10,53,997.87
2021,10,23,10,54,997.87
2021,10,23,10,55,997.87
2021,10,23,10,56,997.87
2021,10,23,10,57,997.87
2021,10,23,10,58,997.87
2021,10,23,10,59,997.87
2021,10,23,11,00,997.63
2021,10,23,11,01,997.63
2021,10,23,11,02,997.63
2021,10,23,11,03,997.63
2021,10,23,11,04,997.63
2021,10,23,11,05,997.63
2021,10,23,11,06,997.63
2021,10,23,11,07,997.63
2021,10,23,11,08,997.63
2021,10,23,11,09,997.63
2021,10,23,11,10,997.63
2021,10,23,11,11,997.63
2021,10,23,11,12,997.63
2021,10,23,11,13,997.63
2021,10,23,11,14,997.63
2021,10,23,11,15,997.73
2021,10,23,11,16,997.73
2021,10,23,11,17,997.73
2021,10,23,11,18,997.73
2021,10,23,11,19,997.73
2021,10,23,11,20,997.73
2021,10,23,11,21,997.73
2021,10,23,11,22,997.73
2021,10,23,11,23,997.73
2021,10,23,11,24,997.73
2021,10,23,11,25,997.73
2021,10,23,11,26,997.73
2021,10,23,11,27,997.73
2021,10,23,11,28,997.73
2021,10,23,11,29,997.73
2021,10,23,11,30,997.80
2021,10,23,11,31,997.80
2021,10,23,11,32,997.80
2021,10,23,11,33,997.80
2021,10,23,11,34,997.80
2021,10,23,11,35,997.80
2021,10,23,11,36,997.80
2021,10,23,11,37,997.80
2021,10,23,11,38,997.80
2021,10,23,11,39,997.80
2021,10,23,11,40,997.80
2021,10,23,11,41,997.80
2021,10,23,11,42,997.80
2021,10,23,11,43,997.80
2021,10,23,11,44,997.80
2021,10,23,11,45,997.77
2021,10,23,11,46,997.77
2021,10,23,11,47,997.77
2021,10,23,11,48,997.77
2021,10,23,11,49,997.77
2021,10,23,11,50,997.77
2021,10,23,11,51,997.77
2021,10,23,11,52,997.77
2021,10,23,11,53,997.77
2021,10,23,11,54,997.77
2021,10,23,11,55,997.77
2021,10,23,11,56,997.77
2021,10,23,11,57,997.77
2021,10,23,11,58,997.77
2021,10,23,11,59,997.77
2021,10,23,12,00,997.80
2021,10,23,12,01,997.80
2021,10,23,12,02,997.80
2021,10,23,12,03,997.80
2021,10,23,12,04,997.80
2021,10,23,12,05,997.80
2021,10,23,12,06,997.80
2021,10,23,12,07,997.80
2021,10,23,12,08,997.80
2021,10,23,12,09,997.80
2021,10,23,12,10,997.80
2021,10,23,12,11,997.80
2021,10,23,12,12,997.80
2021,10,23,12,13,997.80
2021,10,23,12,14,997.80
2021,10,23,12,15,997.66
2021,10,23,12,16,997.66
2021,10,23,12,17,997.66
2021,10,23,12,18,997.66
2021,10,23,12,19,997.66
2021,10,23,12,20,997.66
2021,10,23,12,21,997.66
2021,10,23,12,22,997.66
2021,10,23,12,23,997.66
2021,10,23,12,24,997.66
2021,10,23,12,25,997.66
2021,10,23,12,26,997.66
2021,10,23,12,27,997.66
2021,10,23,12,28,997.66
2021,10,23,12,29,997.66
2021,10,23,12,30,997.60
2021,10,23,12,31,997.60
2021,10,23,12,32,997.60
2021,10,23,12,33,997.60
2021,10,23,12,34,997.60
2021,10,23,12,35,997.60
2021,10,23,12,36,997.60
2021,10,23,12,37,997.60
2021,10,23,12,38,997.60
2021,10,23,12,39,997.60
2021,10,23,12,40,997.60
2021,10,23,12,41,997.60
2021,10,23,12,42,997.60
2021,10,23,12,43,997.60
2021,10,23,12,44,997.60
2021,10,23,12,45,997.39
2021,10,23,12,46,997.39
2021,10,23,12,47,997.39
2021,10,23,12,48,997.39
2021,10,23,12,49,997.39
2021,10,23,12,50,997.39
2021,10,23,12,51,997.39
2021,10,23,12,52,997.39
2021,10,23,12,53,997.39
2021,10,23,12,54,997.39
2021,10,23,12,55,997.39
2021,10,23,12,56,997.39
2021,10,23,12,57,997.39
2021,10,23,12,58,997.39
2021,10,23,12,59,997.39
2021,10,23,13,00,997.39
2021,10,23,13,01,997.39
2021,10,23,13,02,997.39
2021,10,23,13,03,997.39
2021,10,23,13,04,997.39
2021,10,23,13,05,997.39
2021,10,23,13,06,997.39
2021,10,23,13,07,997.39
2021,10,23,13,08,997.39
2021,10,23,13,09,997.39
2021,10,23,13,10,997.39
2021,10,23,13,11,997.39
2021,10,23,13,12,997.39
2021,10,23,13,13,997.39
2021,10,23,13,14,997.39
2021,10,23,13,15,997.36
2021,10,23,13,16,997.36
2021,10,23,13,17,997.36
2021,10,23,13,18,997.36
2021,10,23,13,19,997.36
2021,10,23,13,20,997.36
2021,10,23,13,21,997.36
2021,10,23,13,22,997.36
2021,10,23,13,23,997.36
2021,10,23,13,24,997.36
2021,10,23,13,25,997.36
2021,10,23,13,26,997.36
2021,10,23,13,27,997.36
2021,10,23,13,28,997.36
2021,10,23,13,29,997.36
2021,10,23,13,30,997.19
2021,10,23,13,31,997.19
2021,10,23,13,32,997.19
2021,10,23,13,33,997.19
2021,10,23,13,34,997.19
2021,10,23,13,35,997.19
2021,10,23,13,36,997.19
2021,10,23,13,37,997.19
2021,10,23,13,38,997.19
2021,10,23,13,39,997.19
2021,10,23,13,40,997.19
2021,10,23,13,41,997.19
2021,10,23,13,42,997.19
2021,10,23,13,43,997.19
2021,10,23,13,44,997.19
2021,10,23,13,45,997.29
2021,10,23,13,46,997.29
2021,10,23,13,47,997.29
2021,10,23,13,48,997.29
2021,10,23,13,49,997.29
2021,10,23,13,50,997.29
2021,10,23,13,51,997.29
2021,10,23,13,52,997.29
2021,10,23,13,53,997.29
2021,10,23,13,54,997.29
2021,10,23,13,55,997.29
2021,10,23,13,56,997.29
2021,10,23,13,57,997.29
2021,10,23,13,58,997.29
2021,10,23,13,59,997.29
2021,10,23,14,00,997.33
2021,10,23,14,01,997.33
2021,10,23,14,02,997.33
2021,10,23,14,03,997.33
2021,10,23,14,04,997.33
2021,10,23,14,05,997.33
2021,10,23,14,06,997.33
2021,10,23,14,07,997.33
2021,10,23,14,08,997.33
2021,10,23,14,09,997.33
2021,10,23,14,10,997.33
2021,10,23,14,11,997.33
2021,10,23,14,12,997.33
2021,10,23,14,13,997.33
2021,10,23,14,14,997.33
2021,10,23,14,15,997.26
2021,10,23,14,16,997.26
2021,10,23,14,17,997.26
2021,10,23,14,18,997.26
2021,10,23,14,19,997.26
2021,10,23,14,20,997.26
2021,10,23,14,21,997.26
2021,10,23,14,22,997.26
2021,10,23,14,23,997.26
2021,10,23,14,24,997.26
2021,10,23,14,25,997.26
2021,10,23,14,26,997.26
2021,10,23,14,27,997.26
2021,10,23,14,28,997.26
2021,10,23,14,29,997.26
2021,10,23,14,30,997.09
2021,10,23,14,31,997.09
2021,10,23,14,32,997.09
2021,10,23,14,33,997.09
2021,10,23,14,34,997.09
2021,10,23,14,35,997.09
2021,10,23,14,36,997.09
2021,10,23,14,37,997.09
2021,10,23,14,38,997.09
2021,10,23,14,39,997.09
2021,10,23,14,40,997.09
2021,10,23,14,41,997.09
2021,10,23,14,42,997.09
2021,10,23,14,43,997.09
2021,10,23,14,44,997.09
2021,10,23,14,45,996.95
2021,10,23,14,46,996.95
2021,10,23,14,47,996.95
2021,10,23,14,48,996.95
2021,10,23,14,49,996.95
2021,10,23,14,50,996.95
2021,10,23,14,51,996.95
2021,10,23,14,52,996.95
2021,10,23,14,53,996.95
2021,10,23,14,54,996.95
2021,10,23,14,55,996.95
2021,10,23,14,56,996.95
2021,10,23,14,57,996.95
2021,10,23,14,58,996.95
2021,10,23,14,59,996.95
2021,10,23,15,00,997.25
2021,10,23,15,01,997.26
2021,10,23,15,02,997.26
2021,10,23,15,03,997.26
2021,10,23,15,04,997.26
2021,10,23,15,05,997.26
2021,10,23,15,06,997.26
2021,10,23,15,07,997.26
2021,10,23,15,08,997.26
2021,10,23,15,09,997.26
2021,10,23,15,10,997.26
2021,10,23,15,11,997.26
2021,10,23,15,12,997.26
2021,10,23,15,13,997.26
2021,10,23,15,14,997.26
2021,10,23,15,15,997.36
2021,10,23,15,16,997.36
2021,10,23,15,17,997.36
2021,10,23,15,18,997.36
2021,10,23,15,19,997.36
2021,10,23,15,20,997.36
2021,10,23,15,21,997.36
2021,10,23,15,22,997.36
2021,10,23,15,23,997.36
2021,10,23,15,24,997.36
2021,10,23,15,25,997.36
2021,10,23,15,26,997.36
2021,10,23,15,27,997.36
2021,10,23,15,28,997.36
2021,10,23,15,29,997.36
2021,10,23,15,30,997.29
2021,10,23,15,31,997.29
2021,10,23,15,32,997.29
2021,10,23,15,33,997.29
2021,10,23,15,34,997.29
2021,10,23,15,35,997.29
2021,10,23,15,36,997.29
2021,10,23,15,37,997.29
2021,10,23,15,38,997.29
2021,10,23,15,39,997.29
2021,10,23,15,40,997.29
2021,10,23,15,41,997.29
2021,10,23,15,42,997.29
2021,10,23,15,43,997.29
2021,10,23,15,44,997.29
2021,10,23,15,45,997.33
2021,10,23,15,46,997.33
2021,10,23,15,47,997.33
2021,10,23,15,48,997.33
2021,10,23,15,49,997.33
2021,10,23,15,50,997.33
2021,10,23,15,51,997.33
2021,10,23,15,52,997.33
2021,10,23,15,53,997.33
2021,10,23,15,54,997.33
2021,10,23,15,55,997.33
2021,10,23,15,56,997.33
2021,10,23,15,57,997.33
2021,10,23,15,58,997.33
2021,10,23,15,59,997.33
2021,10,23,16,00,997.36
2021,10,23,16,01,997.36
2021,10,23,16,02,997.36
2021,10,23,16,03,997.36
2021,10,23,16,04,997.36
2021,10,23,16,05,997.36
2021,10,23,16,06,997.36
2021,10,23,16,07,997.36
2021,10,23,16,08,997.36
2021,10,23,16,09,997.36
2021,10,23,16,10,997.36
2021,10,23,16,11,997.36
2021,10,23,16,12,997.36
2021,10,23,16,13,997.36
2021,10,23,16,14,997.36
2021,10,23,16,15,997.36
2021,10,23,16,16,997.36
2021,10,23,16,17,997.36
2021,10,23,16,18,997.36
2021,10,23,16,19,997.36
2021,10,23,16,20,997.36
2021,10,23,16,21,997.36
2021,10,23,16,22,997.36
2021,10,23,16,23,997.36
2021,10,23,16,24,997.36
2021,10,23,16,25,997.36
2021,10,23,16,26,997.36
2021,10,23,16,27,997.36